DIRECTV 11              
1 32729U 08013A   19258.59471742 -.00000135  00000-0  00000+0 0  9998
2 32729   0.0168 342.9382 0000154 205.6007 280.6558  1.00272203 42200
BLOCK DM-SL R/B         
1 32730U 08013B   19258.52816593  .00020130  45250-6  80654-3 0  9995
2 32730   0.2733 124.5262 6575831  24.5148 276.2703  3.26519545111698